Location: Unspecified
(0.0000°N, 0.0000°E)
Time: 02:47:22
(UTC+00:00)

USA 119 - Visible Passes

Search period start: 21 April 2024 00:00
Search period end: 01 May 2024 00:00
Orbit: 2541 x 11723 km, 63.3° (Epoch: 24 October)

Date Brightness Start Highest point End Pass type
(mag) Time Alt. Az. Time Alt. Az. Time Alt. Az.
21 Apr ? 17:08:47 10° NNW 18:06:28 82° WSW 18:26:47 10° SSE visible
22 Apr ? 03:40:34 10° S 03:58:47 39° E 04:40:23 10° NE visible
22 Apr ? 19:39:54 10° NW 20:12:01 26° W 20:28:37 10° SSW visible
24 Apr ? 03:25:46 10° SSE 03:43:51 38° E 04:24:33 10° NE visible
24 Apr ? 19:23:44 10° NW 19:57:06 27° W 20:13:58 10° SSW visible
25 Apr ? 05:30:07 10° SSW 05:50:42 81° WNW 06:49:58 10° NNE visible
26 Apr ? 03:10:59 10° SSE 03:28:55 36° E 04:08:40 10° NE visible
26 Apr ? 19:07:36 10° NW 19:42:10 28° W 19:59:18 10° SSW visible
27 Apr ? 05:15:05 10° SSW 05:35:36 83° WNW 06:34:37 10° NNE visible
28 Apr ? 02:56:13 10° SSE 03:14:00 35° E 03:52:46 10° NE visible
28 Apr ? 18:51:31 10° NW 19:27:14 30° W 19:44:37 10° SSW visible
29 Apr ? 05:00:03 10° SSW 05:20:30 84° WNW 06:19:15 10° NNE visible
30 Apr ? 02:41:27 10° SSE 02:59:03 33° E 03:36:51 10° NE visible
30 Apr ? 18:35:28 10° NW 19:12:19 31° W 19:29:54 10° SSW visible
